Location: Unspecified
(48.7971°N, 123.6320°W)
Time: 17:45:11
(UTC-07:00)

Okean 3 - Pass Details

Date: 26 June 2019
Orbit: 577 x 601 km, 82.5° (Epoch: 22 July)

Event Time Altitude Azimuth Distance (km) Brightness Sun altitude
Rises 02:58:24 0° 9° (N) 2,864 8.6 -14.4°
Reaches altitude 10° 03:03:04 10° 55° (NE) 1,951 7.1 -14.1°
Maximum altitude 03:03:28 10° 60° (ENE) 1,942 7.0 -14.0°
Drops below altitude 10° 03:03:53 10° 66° (ENE) 1,949 6.9 -14.0°
Sets 03:08:31 0° 112° (ESE) 2,838 7.0 -13.7°
